| time (UTC) | temp F | wind direction | speed knots | gust knots | rain 1hr in | rain 24hr in | rain mn in | humidity % | barometer mb |
| 20260506135018 | 58 | 0.0 | 0.0 | 0.00 | 0.01 | 0.00 | 86 | 1018.8 | |
| 20260506134017 | 57 | 0.0 | 1.7 | 0.00 | 0.01 | 0.00 | 87 | 1018.7 | |
| 20260506133017 | 57 | 0.0 | 1.7 | 0.00 | 0.01 | 0.00 | 86 | 1018.6 | |
| 20260506132017 | 58 | 0.0 | 0.9 | 0.00 | 0.01 | 0.00 | 86 | 1018.5 | |
| 20260506131019 | 58 | 0.0 | 0.0 | 0.00 | 0.01 | 0.00 | 86 | 1018.5 | |
| 20260506130017 | 58 | 0.0 | 0.0 | 0.00 | 0.01 | 0.00 | 86 | 1018.5 | |
| 20260506125017 | 58 | 0.0 | 0.0 | 0.00 | 0.01 | 0.00 | 86 | 1018.5 | |
| 20260506124017 | 58 | 0.0 | 0.0 | 0.00 | 0.01 | 0.00 | 87 | 1018.5 | |
| 20260506123017 | 58 | 0.0 | 0.0 | 0.00 | 0.01 | 0.00 | 87 | 1018.4 | |
| 20260506122017 | 58 | 0.0 | 0.0 | 0.00 | 0.01 | 0.00 | 86 | 1018.4 | |
| 20260506121017 | 58 | 0.0 | 0.0 | 0.00 | 0.01 | 0.00 | 86 | 1018.2 | |
| 20260506120017 | 58 | 0.0 | 0.0 | 0.00 | 0.01 | 0.00 | 86 | 1018.2 | |
| 20260506115017 | 58 | 0.0 | 0.0 | 0.00 | 0.01 | 0.00 | 86 | 1018.2 | |
| 20260506114017 | 58 | 0.0 | 0.0 | 0.00 | 0.01 | 0.00 | 85 | 1018.1 | |
| 20260506113017 | 58 | 0.0 | 1.7 | 0.00 | 0.01 | 0.00 | 84 | 1018.1 | |
| 20260506112016 | 58 | 0.0 | 0.0 | 0.00 | 0.01 | 0.00 | 87 | 1018.0 | |
| 20260506110017 | 58 | 0.0 | 1.7 | 0.00 | 0.01 | 0.00 | 86 | 1017.9 | |
| 20260506105017 | 58 | 0.0 | 0.0 | 0.00 | 0.01 | 0.00 | 85 | 1017.8 | |
| 20260506104017 | 58 | 0.0 | 0.0 | 0.00 | 0.01 | 0.00 | 85 | 1017.7 | |
| 20260506103017 | 58 | 0.0 | 0.0 | 0.00 | 0.01 | 0.00 | 86 | 1017.6 | |
| 20260506102017 | 58 | 0.0 | 0.0 | 0.00 | 0.01 | 0.00 | 85 | 1017.5 | |
| 20260506100017 | 58 | 0.0 | 0.0 | 0.00 | 0.01 | 0.00 | 85 | 1017.4 | |
| 20260506093017 | 58 | 0.0 | 0.0 | 0.00 | 0.01 | 0.00 | 84 | 1017.4 | |
| 20260506092016 | 58 | 0.0 | 0.0 | 0.00 | 0.01 | 0.00 | 83 | 1017.4 | |
| 20260506091017 | 58 | 0.0 | 0.0 | 0.00 | 0.01 | 0.00 | 83 | 1017.5 | |
| 20260506090017 | 58 | 0.0 | 0.0 | 0.00 | 0.01 | 0.00 | 83 | 1017.4 | |
| 20260506085016 | 58 | 0.0 | 0.0 | 0.00 | 0.01 | 0.00 | 83 | 1017.5 | |
| 20260506084016 | 59 | 0.0 | 0.0 | 0.00 | 0.01 | 0.00 | 83 | 1017.5 | |
| 20260506083017 | 59 | 0.0 | 0.0 | 0.00 | 0.01 | 0.00 | 82 | 1017.5 | |
| 20260506082017 | 59 | 0.0 | 0.0 | 0.00 | 0.01 | 0.00 | 82 | 1017.5 | |
| 20260506081017 | 59 | 0.0 | 0.0 | 0.00 | 0.01 | 0.00 | 81 | 1017.4 | |
| 20260506073016 | 59 | 0.0 | 0.0 | 0.00 | 0.02 | 0.00 | 80 | 1017.0 | |
| 20260506072016 | 59 | 0.0 | 0.0 | 0.00 | 0.02 | 0.00 | 80 | 1017.0 | |
| 20260506071016 | 59 | 0.0 | 0.0 | 0.00 | 0.04 | 0.00 | 81 | 1016.9 | |
| 20260506062016 | 59 | 0.0 | 0.0 | 0.00 | 0.10 | 0.06 | 80 | 1016.4 | |
| 20260506051015 | 60 | 0.0 | 0.9 | 0.00 | 0.21 | 0.06 | 79 | 1016.0 | |
| 20260506045015 | 60 | 0.0 | 0.9 | 0.00 | 0.22 | 0.06 | 79 | 1015.7 | |
| 20260506044015 | 60 | 0.0 | 0.0 | 0.00 | 0.22 | 0.06 | 80 | 1015.6 | |
| 20260506043015 | 60 | 0.0 | 1.7 | 0.00 | 0.22 | 0.06 | 79 | 1015.4 | |
| 20260506042016 | 60 | 0.0 | 2.6 | 0.00 | 0.22 | 0.06 | 78 | 1015.3 | |
| 20260506041015 | 60 | 0.0 | 1.7 | 0.00 | 0.22 | 0.06 | 79 | 1015.1 | |
| 20260506040015 | 60 | 0.0 | 1.7 | 0.00 | 0.22 | 0.06 | 79 | 1015.0 | |
| 20260506032017 | 61 | 0.0 | 1.7 | 0.00 | 0.26 | 0.06 | 78 | 1014.4 | |
| 20260506031017 | 61 | 0.0 | 3.5 | 0.00 | 0.27 | 0.06 | 78 | 1014.3 | |
| 20260506030019 | 61 | 0.0 | 1.7 | 0.00 | 0.28 | 0.06 | 78 | 1014.1 | |
| 20260506023017 | 62 | 158 | 0.9 | 4.3 | 0.00 | 0.32 | 0.06 | 77 | 1013.8 |
| 20260506022017 | 62 | 180 | 0.9 | 4.3 | 0.00 | 0.33 | 0.06 | 77 | 1013.6 |
| 20260506021017 | 62 | 158 | 0.9 | 5.2 | 0.00 | 0.35 | 0.06 | 77 | 1013.6 |
| 20260506020017 | 63 | 158 | 1.7 | 7.0 | 0.00 | 0.38 | 0.06 | 77 | 1013.5 |
| 20260506015017 | 63 | 158 | 0.9 | 4.3 | 0.00 | 0.40 | 0.06 | 76 | 1013.3 |
| 20260506014017 | 63 | 0.0 | 3.5 | 0.00 | 0.42 | 0.06 | 76 | 1013.3 | |
| 20260506013017 | 64 | 135 | 0.9 | 4.3 | 0.00 | 0.43 | 0.06 | 74 | 1013.3 |
| 20260506012017 | 64 | 135 | 0.9 | 5.2 | 0.00 | 0.44 | 0.06 | 74 | 1013.1 |
| 20260506010017 | 65 | 158 | 1.7 | 6.1 | 0.00 | 0.46 | 0.06 | 74 | 1012.8 |
| 20260506005017 | 65 | 135 | 2.6 | 7.0 | 0.00 | 0.48 | 0.06 | 74 | 1012.9 |
| 20260506004017 | 66 | 135 | 1.7 | 7.8 | 0.00 | 0.48 | 0.06 | 73 | 1012.9 |
| 20260506003017 | 66 | 180 | 1.7 | 6.1 | 0.00 | 0.49 | 0.06 | 73 | 1012.9 |
| 20260506002017 | 67 | 158 | 2.6 | 5.2 | 0.00 | 0.50 | 0.06 | 71 | 1012.9 |
| 20260506001017 | 67 | 158 | 3.5 | 8.7 | 0.00 | 0.51 | 0.06 | 71 | 1012.9 |
| 20260505235017 | 67 | 158 | 2.6 | 7.0 | 0.00 | 0.53 | 0.06 | 71 | 1012.7 |
| 20260505234017 | 67 | 158 | 3.5 | 7.8 | 0.00 | 0.54 | 0.06 | 73 | 1012.8 |
| 20260505233017 | 67 | 158 | 3.5 | 9.6 | 0.00 | 0.55 | 0.06 | 69 | 1012.8 |
| 20260505232017 | 69 | 158 | 3.5 | 7.8 | 0.00 | 0.56 | 0.06 | 68 | 1012.9 |
| 20260505231016 | 67 | 180 | 2.6 | 6.1 | 0.00 | 0.58 | 0.06 | 71 | 1012.9 |
| 20260505230016 | 67 | 180 | 2.6 | 6.1 | 0.00 | 0.58 | 0.06 | 66 | 1013.0 |
| 20260505225017 | 68 | 158 | 2.6 | 5.2 | 0.00 | 0.59 | 0.06 | 64 | 1013.0 |
| 20260505224016 | 68 | 180 | 2.6 | 6.1 | 0.00 | 0.59 | 0.06 | 65 | 1013.1 |
| 20260505222016 | 67 | 158 | 2.6 | 5.2 | 0.00 | 0.60 | 0.06 | 68 | 1013.3 |
| 20260505221016 | 66 | 180 | 1.7 | 4.3 | 0.00 | 0.61 | 0.06 | 68 | 1013.4 |
| 20260505220017 | 66 | 180 | 1.7 | 4.3 | 0.00 | 0.61 | 0.06 | 66 | 1013.5 |
| 20260505215017 | 66 | 158 | 2.6 | 5.2 | 0.00 | 0.62 | 0.06 | 67 | 1013.5 |
| 20260505214016 | 67 | 180 | 2.6 | 5.2 | 0.00 | 0.62 | 0.06 | 65 | 1013.6 |
| 20260505213016 | 67 | 180 | 1.7 | 3.5 | 0.00 | 0.62 | 0.06 | 66 | 1013.7 |
| 20260505212016 | 65 | 158 | 1.7 | 4.3 | 0.00 | 0.62 | 0.06 | 73 | 1013.7 |
| 20260505211016 | 65 | 158 | 1.7 | 3.5 | 0.00 | 0.62 | 0.06 | 71 | 1013.8 |
| 20260505210016 | 65 | 180 | 1.7 | 4.3 | 0.00 | 0.62 | 0.06 | 71 | 1013.9 |
| 20260505204016 | 65 | 225 | 0.9 | 3.5 | 0.00 | 0.62 | 0.06 | 71 | 1014.0 |
| 20260505202016 | 63 | 0.0 | 1.7 | 0.00 | 0.62 | 0.06 | 72 | 1014.1 | |
| 20260505201016 | 63 | 225 | 0.9 | 3.5 | 0.00 | 0.62 | 0.06 | 73 | 1014.1 |
| 20260505200016 | 63 | 180 | 0.9 | 3.5 | 0.00 | 0.62 | 0.06 | 76 | 1014.1 |
| 20260505195016 | 63 | 180 | 1.7 | 4.3 | 0.00 | 0.62 | 0.06 | 77 | 1014.2 |
| 20260505193017 | 61 | 203 | 0.9 | 2.6 | 0.00 | 0.62 | 0.06 | 81 | 1014.3 |
| 20260505191016 | 60 | 180 | 1.7 | 3.5 | 0.00 | 0.62 | 0.06 | 82 | 1014.4 |
| 20260505190016 | 60 | 180 | 1.7 | 4.3 | 0.00 | 0.62 | 0.06 | 84 | 1014.3 |
| 20260505185016 | 60 | 180 | 0.9 | 2.6 | 0.00 | 0.62 | 0.06 | 82 | 1014.4 |
| 20260505183016 | 58 | 158 | 0.9 | 1.7 | 0.00 | 0.62 | 0.06 | 87 | 1014.4 |
| 20260505182016 | 58 | 0.0 | 1.7 | 0.01 | 0.62 | 0.06 | 87 | 1014.4 | |
| 20260505181016 | 57 | 158 | 0.9 | 3.5 | 0.01 | 0.62 | 0.06 | 88 | 1014.4 |
| 20260505180016 | 57 | 158 | 0.9 | 2.6 | 0.01 | 0.62 | 0.06 | 89 | 1014.4 |
| 20260505175016 | 57 | 158 | 0.9 | 2.6 | 0.01 | 0.62 | 0.06 | 88 | 1014.4 |
| 20260505173016 | 57 | 270 | 0.9 | 1.7 | 0.01 | 0.62 | 0.06 | 87 | 1014.2 |
| 20260505172021 | 57 | 270 | 0.9 | 2.6 | 0.00 | 0.61 | 0.05 | 87 | 1014.1 |
| 20260505171016 | 56 | 0.0 | 1.7 | 0.00 | 0.61 | 0.05 | 89 | 1014.1 | |
| 20260505170015 | 56 | 293 | 0.9 | 1.7 | 0.00 | 0.61 | 0.05 | 88 | 1014.2 |
| 20260505164015 | 56 | 315 | 0.9 | 2.6 | 0.00 | 0.61 | 0.05 | 86 | 1014.3 |
| 20260505163016 | 56 | 0.0 | 2.6 | 0.00 | 0.61 | 0.05 | 86 | 1014.1 | |
| 20260505161017 | 55 | 0.0 | 0.0 | 0.00 | 0.61 | 0.05 | 87 | 1013.8 | |
| 20260505153015 | 55 | 0.0 | 1.7 | 0.00 | 0.61 | 0.05 | 89 | 1013.6 | |
| 20260505152015 | 55 | 0.0 | 1.7 | 0.00 | 0.61 | 0.05 | 88 | 1013.4 | |
| 20260505151015 | 55 | 0.0 | 1.7 | 0.00 | 0.61 | 0.05 | 89 | 1013.4 |